www.pogodaiklimat.ru
ПОГОДА в Джангельды

Архив погоды в Джангельды (Бухарская область, Узбекистан)

Время
и дата
03:50 28.05
04:00 28.05
04:20 28.05
04:30 28.05
04:40 28.05
04:50 28.05
05:10 28.05
05:20 28.05
05:30 28.05
06:00 28.05
06:20 28.05
06:40 28.05
06:50 28.05
07:10 28.05
07:20 28.05
07:40 28.05
07:50 28.05
08:00 28.05
08:20 28.05
08:30 28.05
08:50 28.05
09:00 28.05
09:10 28.05
09:20 28.05
09:30 28.05
09:50 28.05
10:00 28.05
10:10 28.05
10:20 28.05
10:40 28.05
10:50 28.05
11:00 28.05
11:20 28.05
11:40 28.05
11:50 28.05
12:00 28.05
12:10 28.05
12:20 28.05
12:30 28.05
13:00 28.05
13:10 28.05
13:20 28.05
13:30 28.05
13:40 28.05
13:50 28.05
14:00 28.05
14:20 28.05
14:30 28.05
14:40 28.05
14:50 28.05
15:00 28.05
15:10 28.05
15:20 28.05
15:30 28.05
15:40 28.05
15:50 28.05
16:00 28.05
16:10 28.05
16:20 28.05
16:30 28.05
16:40 28.05
16:50 28.05
17:00 28.05
17:10 28.05
17:20 28.05
17:40 28.05
17:50 28.05
18:00 28.05
18:10 28.05
18:20 28.05
18:30 28.05
18:40 28.05
18:50 28.05
19:00 28.05
19:10 28.05
19:20 28.05
19:30 28.05
19:40 28.05
19:50 28.05
20:00 28.05
20:10 28.05
20:20 28.05
20:30 28.05
20:40 28.05
20:50 28.05
21:00 28.05
21:10 28.05
21:20 28.05
21:30 28.05
21:40 28.05
21:50 28.05
22:10 28.05
22:20 28.05
22:30 28.05
22:40 28.05
22:50 28.05
23:00 28.05
23:10 28.05
23:20 28.05
23:30 28.05
23:50 28.05
00:00 29.05
00:10 29.05
00:20 29.05
00:30 29.05
00:40 29.05
01:00 29.05
01:10 29.05
01:20 29.05
01:30 29.05
01:40 29.05
01:50 29.05
02:00 29.05
02:10 29.05
02:20 29.05
02:30 29.05
02:40 29.05
02:50 29.05
03:00 29.05
03:10 29.05
03:20 29.05
03:30 29.05
03:40 29.05
03:50 29.05
04:00 29.05
04:10 29.05
04:20 29.05
04:30 29.05
04:40 29.05
04:50 29.05
05:00 29.05
05:10 29.05
05:20 29.05
05:30 29.05
05:40 29.05
05:50 29.05
06:00 29.05
06:10 29.05
06:20 29.05
06:30 29.05
06:40 29.05
06:50 29.05
07:00 29.05
07:10 29.05
Ветер
(напр.,м/с)
Видимость Явления Солнечная радиация
(Вт/м2)
Т
(С)
Тd
(С)
f
(%)
Тe
(С)
Тes
(С)
Комфортность P
(гПа)
Po
(гПа)
Тmin
(С)
Tmax
(С)
R
(мм)
СВ 4.7
{6.0}
+19.3 -5.6 18 +19 +19 1014.5 989.6 +19.7 +19.2
СВ 4.8
{5.8}
+19.4 -5.5 18 +19 +19 1014.6 989.7 +19.5 +19.3
СВ 5.1
{6.4}
+18.6 -4.8 20 +18 +18 1014.7 989.8 +18.9 +18.6
СВ 5.3
{6.5}
+18.8 -4.9 20 +18 +18 1014.6 989.7 +18.9 +18.6
СВ 5.5
{6.9}
+19.0 -4.9 19 +19 +19 1014.6 989.7 +19.0 +18.8
СВ 5.5
{7.1}
+19.2 -4.6 20 +19 +19 1014.6 989.7 +19.2 +19.0
СВ 5.6
{7.0}
+19.5 -4.6 19 +19 +19 1014.7 989.8 +19.5 +19.3
СВ 5.2
{6.4}
+19.0 -4.3 20 +19 +19 1014.8 989.9 +19.5 +19.0
СВ 5.6
{7.3}
+18.8 -4.2 21 +18 +18 1014.9 990.0 +19.0 +18.8
СВ 6.0
{7.3}
+19.5 -4.1 20 +19 +19 1015.3 990.4 +19.5 +18.8
СВ 5.6
{7.1}
+19.6 -3.7 20 +19 +19 1015.4 990.5 +19.6 +19.5
СВ 5.1
{6.7}
+21.2 -3.7 18 +20 +20 1015.6 990.7 +21.2 +20.5
СВ 5.1
{6.6}
+21.9 -3.6 18 +21 +21 комфорт 1015.6 990.7 +21.9 +21.2
СВ 4.7
{6.3}
+23.3 -3.3 17 +22 +22 комфорт 1015.6 990.7 +23.3 +22.6
СВ 5.1
{6.4}
+24.0 -3.2 16 +22 +22 комфорт 1015.6 990.7 +24.0 +23.3
С 5.4
{6.8}
+25.0 -3.2 15 +23 +23 комфорт 1015.7 990.8 +25.0 +24.6
СВ 5.6
{7.4}
+25.6 -3.5 14 +23 +23 комфорт 1015.8 990.9 +25.6 +25.0
СВ 5.4
{7.4}
+25.8 -3.5 14 +23 +23 комфорт 1015.9 991.0 +25.8 +25.6
СВ 5.0
{7.1}
+26.5 -4.1 13 +24 +24 комфорт 1015.9 991.0 +26.5 +26.3
СВ 5.5
{7.3}
+26.8 -4.0 13 +24 +24 комфорт 1016.0 991.1 +26.8 +26.5
СВ 5.6
{8.1}
+27.2 -4.5 12 +24 +24 комфорт 1016.3 991.4 +27.2 +26.8
СВ 6.4
{9.0}
+27.2 -4.9 12 +24 +24 комфорт 1016.3 991.4 +27.3 +27.0
СВ 6.6
{9.7}
+27.4 -4.5 12 +24 +24 комфорт 1016.4 991.5 +27.5 +27.1
СВ 6.8
{9.8}
+27.7 -4.3 12 +25 +25 комфорт 1016.4 991.5 +27.7 +27.4
СВ 6.3
{8.3}
+27.9 -4.2 12 +25 +25 комфорт 1016.4 991.5 +28.0 +27.6
СВ 5.1
{8.2}
+28.8 -3.5 12 +26 +26 жарко 1016.6 991.7 +28.9 +28.1
СВ 5.3
{8.6}
+28.8 -3.6 12 +26 +26 жарко 1016.6 991.7 +28.8 +28.6
СВ 5.3
{7.7}
+28.9 -3.2 12 +26 +26 жарко 1016.6 991.7 +29.2 +28.7
СВ 4.8
{7.1}
+29.1 -3.4 12 +26 +26 жарко 1016.6 991.7 +29.1 +28.9
СВ 4.2
{7.1}
+29.6 -3.2 12 +26 +26 жарко 1016.6 991.7 +29.7 +29.2
СВ 4.0
{6.3}
+29.7 -3.1 12 +27 +27 жарко 1016.7 991.8 +29.8 +29.5
В 2.4
{5.6}
+30.5 -3.4 11 +27 +27 жарко 1016.7 991.8 +30.6 +29.7
С 2.1
{4.8}
+30.6 -3.0 11 +27 +27 жарко 1016.8 991.9 +30.9 +30.0
СВ 3.0
{6.3}
+30.7 -3.2 11 +27 +27 жарко 1016.7 991.8 +31.0 +30.5
ЮЗ 1.8
{4.4}
+31.2 -3.1 11 +28 +28 жарко 1016.7 991.8 +31.3 +30.6
СВ 1.6
{3.3}
+31.9 -3.3 10 +28 +28 жарко 1016.6 991.7 +32.0 +31.1
СВ 3.0
{6.7}
+31.7 -3.8 10 +28 +28 жарко 1016.6 991.7 +32.3 +31.7
СВ 3.3
{9.0}
+31.7 -4.3 10 +28 +28 жарко 1016.5 991.6 +32.0 +31.5
С 5.1
{9.3}
+31.3 -4.8 9 +27 +27 жарко 1016.5 991.6 +32.0 +31.4
С 3.9
{7.7}
+31.7 -4.4 9 +28 +28 жарко 1016.4 991.5 +32.2 +31.6
С 4.5
{7.8}
+32.3 -4.3 9 +28 +28 жарко 1016.4 991.5 +32.3 +31.7
СЗ 2.2
{5.5}
+32.5 -4.2 9 +29 +29 жарко 1016.4 991.5 +32.7 +31.7
СВ 4.6
{7.2}
+31.9 -4.2 9 +28 +28 жарко 1016.4 991.5 +32.9 +31.9
С 3.0
{6.9}
+32.1 -4.2 9 +28 +28 жарко 1016.3 991.4 +32.7 +31.8
С 3.6
{8.9}
+31.9 -4.2 9 +28 +28 жарко 1016.2 991.3 +32.4 +31.8
С 2.3
{6.5}
+32.5 -4.2 9 +29 +29 жарко 1016.2 991.3 +32.6 +31.9
С 5.9
{11.0}
+32.3 -4.3 9 +28 +28 жарко 1016.1 991.2 +32.4 +32.1
С 5.9
{9.8}
+32.1 -4.4 9 +28 +28 жарко 1016.1 991.2 +32.6 +32.0
СЗ 2.3
{5.1}
+32.7 -4.1 9 +29 +29 жарко 1016.1 991.2 +32.9 +32.1
СЗ 2.9
{9.9}
+33.2 -3.5 9 +29 +29 жарко 1016.0 991.1 +33.4 +32.4
СЗ 5.4
{9.5}
+31.9 -3.8 10 +28 +28 жарко 1015.9 991.0 +33.2 +32.0
СЗ 4.0
{8.2}
+32.2 -3.8 10 +28 +28 жарко 1015.8 990.9 +32.3 +31.8
СЗ 5.8
{8.5}
+32.4 -3.5 10 +29 +29 жарко 1015.7 990.8 +32.6 +32.1
СЗ 5.4
{10.2}
+31.8 -3.2 10 +28 +28 жарко 1015.7 990.8 +32.5 +31.7
СЗ 5.1
{7.6}
+32.2 -3.6 10 +28 +28 жарко 1015.6 990.7 +32.2 +31.8
СЗ 3.2
{7.5}
+32.2 -3.5 10 +28 +28 жарко 1015.6 990.7 +32.7 +32.2
С 4.3
{7.5}
+32.6 -3.2 10 +29 +29 жарко 1015.5 990.6 +32.7 +32.2
СВ 3.9
{6.3}
+32.3 -3.3 10 +29 +29 жарко 1015.5 990.6 +32.7 +32.3
С 5.8
{10.7}
+32.1 -3.1 10 +28 +28 жарко 1015.4 990.5 +32.5 +32.1
СВ 4.3
{7.4}
+31.9 -3.0 10 +28 +28 жарко 1015.5 990.6 +32.2 +31.9
С 4.3
{10.4}
+31.9 -3.2 10 +28 +28 жарко 1015.5 990.6 +32.4 +31.9
С 5.5
{9.6}
+32.3 -3.0 10 +29 +29 жарко 1015.5 990.6 +32.3 +31.9
С 5.6
{8.7}
+32.3 -2.9 10 +29 +29 жарко 1015.4 990.5 +32.4 +32.1
С 5.1
{9.1}
+32.1 -3.1 10 +28 +28 жарко 1015.4 990.5 +32.5 +32.1
С 5.7
{9.3}
+31.9 -3.1 10 +28 +28 жарко 1015.4 990.5 +32.2 +31.9
С 5.5
{8.6}
+31.7 -2.4 11 +28 +28 жарко 1015.3 990.4 +32.0 +31.6
С 5.3
{9.4}
+31.8 -2.7 11 +28 +28 жарко 1015.3 990.4 +32.0 +31.7
С 5.8
{9.1}
+31.5 -2.6 11 +28 +28 жарко 1015.2 990.3 +31.8 +31.5
С 5.5
{8.7}
+31.4 -2.6 11 +28 +28 жарко 1015.2 990.3 +31.5 +31.1
С 4.3
{6.7}
+31.5 -2.5 11 +28 +28 жарко 1015.3 990.4 +31.5 +31.3
С 4.2
{6.6}
+31.2 -2.5 11 +28 +28 жарко 1015.3 990.4 +31.5 +31.1
С 4.8
{12.8}
+31.1 -2.4 11 +28 +28 жарко 1015.3 990.4 +31.2 +31.1
С 5.8
{8.4}
+30.9 -2.3 12 +28 +28 жарко 1015.3 990.4 +31.1 +30.8
С 5.6
{7.8}
+30.7 -2.1 12 +27 +27 жарко 1015.4 990.5 +30.9 +30.7
С 7.3
{10.6}
+30.3 -1.6 13 +27 +27 жарко 1015.5 990.6 +30.7 +30.3
С 7.0
{9.5}
+30.1 -1.8 13 +27 +27 жарко 1015.5 990.6 +30.3 +30.1
С 6.0
{8.4}
+29.9 -1.7 13 +27 +27 жарко 1015.6 990.7 +30.1 +29.9
С 5.8
{7.9}
+29.7 -1.6 13 +27 +27 жарко 1015.7 990.8 +29.9 +29.7
С 5.3
{7.4}
+29.4 -1.5 13 +26 +26 жарко 1015.7 990.8 +29.7 +29.4
С 5.7
{7.9}
+29.0 -1.4 14 +26 +26 жарко 1015.7 990.8 +29.4 +29.0
СВ 5.7
{8.4}
+28.7 -1.4 14 +26 +26 жарко 1015.8 990.9 +29.0 +28.7
С 5.5
{8.5}
+28.5 -1.4 14 +26 +26 жарко 1015.8 990.9 +28.7 +28.5
С 6.1
{9.0}
+28.0 -1.5 14 +25 +25 комфорт 1015.9 991.0 +28.5 +28.0
С 5.3
{7.6}
+27.7 -1.3 15 +25 +25 комфорт 1015.9 991.0 +28.0 +27.7
С 5.0
{6.7}
+27.3 -1.3 15 +25 +25 комфорт 1016.0 991.1 +27.7 +27.3
С 5.2
{7.4}
+27.2 -1.4 15 +25 +25 комфорт 1016.0 991.1 +27.3 +27.2
С 5.3
{7.4}
+26.9 -1.4 16 +25 +25 комфорт 1016.1 991.2 +27.2 +26.9
С 5.5
{7.3}
+26.6 -1.4 16 +24 +24 комфорт 1016.1 991.2 +26.9 +26.6
С 6.0
{8.5}
+26.3 -1.4 16 +24 +24 комфорт 1016.2 991.3 +26.6 +26.3
СВ 6.1
{8.6}
+26.0 -1.3 17 +24 +24 комфорт 1016.2 991.3 +26.3 +26.0
СВ 5.7
{8.1}
+25.6 -1.3 17 +24 +24 комфорт 1016.3 991.4 +26.0 +25.6
С 7.2
{10.2}
+25.2 -1.1 18 +23 +23 комфорт 1016.4 991.5 +25.5 +25.2
СВ 7.7
{10.5}
+25.1 -0.9 18 +23 +23 комфорт 1016.4 991.5 +25.2 +25.1
С 7.3
{10.5}
+24.9 -0.8 18 +23 +23 комфорт 1016.4 991.5 +25.1 +24.9
С 8.0
{10.7}
+24.6 -0.8 19 +23 +23 комфорт 1016.4 991.5 +24.9 +24.6
СВ 8.1
{11.9}
+24.4 -0.7 19 +23 +23 комфорт 1016.4 991.5 +24.6 +24.4
С 8.1
{11.8}
+24.2 -0.8 19 +23 +23 комфорт 1016.4 991.5 +24.4 +24.3
СВ 8.2
{12.1}
+24.1 -0.8 19 +23 +23 комфорт 1016.4 991.5 +24.2 +24.1
СВ 8.5
{11.9}
+23.9 -0.8 20 +23 +23 комфорт 1016.4 991.5 +24.1 +23.9
СВ 8.7
{12.1}
+23.7 -0.7 20 +22 +22 комфорт 1016.5 991.6 +23.9 +23.7
СВ 8.5
{12.3}
+23.2 -0.7 20 +22 +22 комфорт 1016.6 991.7 +23.4 +23.2
СВ 9.1
{12.8}
+23.1 -0.7 21 +22 +22 комфорт 1016.6 991.7 +23.2 +23.1
СВ 8.9
{12.0}
+22.7 -0.7 21 +22 +22 комфорт 1016.7 991.8 +23.1 +22.7
СВ 8.4
{11.7}
+22.5 -0.7 21 +22 +22 комфорт 1016.7 991.8 +22.7 +22.5
СВ 8.3
{11.7}
+22.2 -0.7 22 +21 +21 комфорт 1016.7 991.8 +22.5 +22.2
СВ 8.0
{11.1}
+21.9 -0.6 22 +21 +21 комфорт 1016.6 991.7 +22.2 +21.9
СВ 8.1
{11.1}
+21.4 -0.5 23 +21 +21 комфорт 1016.6 991.7 +21.7 +21.5
СВ 8.2
{11.3}
+21.3 -0.5 23 +21 +21 комфорт 1016.5 991.6 +21.4 +21.3
СВ 8.2
{11.4}
+21.2 -0.5 23 +21 +21 комфорт 1016.5 991.6 +21.3 +21.2
СВ 8.5
{12.2}
+21.2 -0.6 23 +21 +21 комфорт 1016.5 991.6 +21.2 +21.1
СВ 8.6
{12.7}
+21.1 -0.8 23 +21 +21 комфорт 1016.4 991.5 +21.2 +21.1
СВ 9.3
{13.7}
+21.2 -1.3 22 +21 +21 комфорт 1016.4 991.5 +21.2 +21.1
СВ 10.0
{13.9}
+21.1 -1.5 22 +21 +21 комфорт 1016.4 991.5 +21.3 +21.1
СВ 10.0
{13.8}
+20.9 -1.4 22 +20 +20 1016.4 991.5 +21.1 +20.9
СВ 8.8
{12.8}
+20.5 -1.0 24 +20 +20 1016.4 991.5 +20.9 +20.5
СВ 9.1
{13.8}
+20.4 -1.6 23 +20 +20 1016.4 991.5 +20.5 +20.3
СВ 9.4
{13.1}
+20.3 -2.4 21 +19 +19 1016.3 991.4 +20.4 +20.3
СВ 9.2
{13.8}
+20.3 -3.3 20 +19 +19 1016.4 991.5 +20.4 +20.3
СВ 10.3
{13.9}
+20.5 -4.2 19 +19 +19 1016.4 991.5 +20.5 +20.3
СВ 10.6
{14.2}
+20.3 -4.5 18 +19 +19 1016.3 991.4 +20.5 +20.3
СВ 9.8
{14.0}
+20.2 -4.9 18 +19 +19 1016.3 991.4 +20.3 +20.2
СВ 9.4
{13.5}
+19.9 -4.8 18 +19 +19 1016.3 991.4 +20.2 +19.9
СВ 9.4
{12.9}
+19.7 -5.0 18 +19 +19 1016.3 991.4 +19.9 +19.7
СВ 9.5
{12.8}
+19.6 -5.1 18 +19 +19 1016.4 991.5 +19.7 +19.6
СВ 9.3
{13.2}
+19.2 -5.1 19 +18 +18 1016.4 991.5 +19.6 +19.2
СВ 8.9
{12.1}
+19.0 -5.1 19 +18 +18 1016.4 991.5 +19.2 +19.0
СВ 9.6
{13.2}
+18.8 -5.1 19 +18 +18 1016.4 991.5 +19.0 +18.8
СВ 9.0
{13.1}
+18.5 -4.9 20 +18 +18 1016.5 991.6 +18.8 +18.5
СВ 8.7
{12.2}
+18.4 -5.1 20 +17 +17 1016.5 991.6 +18.5 +18.4
СВ 9.3
{13.2}
+18.2 -5.2 20 +17 +17 1016.6 991.7 +18.4 +18.2
СВ 9.0
{12.6}
+17.9 -5.1 20 +17 +17 1016.6 991.7 +18.2 +18.0
СВ 8.1
{11.6}
+17.9 -5.8 19 +17 +17 1016.7 991.8 +17.9 +17.8
СВ 7.6
{10.7}
+17.9 -6.1 19 +17 +17 1016.8 991.9 +17.9 +17.9
СВ 7.3
{10.1}
+18.0 -6.5 18 +17 +17 1016.9 992.0 +18.0 +17.9
СВ 6.2
{9.2}
+17.9 -6.6 18 +17 +17 1017.1 992.2 +18.0 +17.9
СВ 6.0
{8.9}
+18.0 -6.8 18 +17 +17 1017.2 992.3 +18.0 +17.9
СВ 4.4
{7.1}
+18.2 -6.7 18 +18 +18 1017.3 992.4 +18.2 +18.0
СВ 3.1
{5.2}
+18.4 -6.8 17 +18 +18 1017.4 992.5 +18.4 +18.2
СВ 3.8
{5.8}
+18.8 -6.8 17 +19 +19 1017.5 992.6 +18.8 +18.4
СВ 3.5
{5.7}
+19.0 -6.9 17 +19 +19 1017.5 992.6 +19.0 +18.8
СВ 3.9
{6.7}
+19.1 -7.0 16 +19 +19 1017.4 992.5 +19.1 +19.0
СВ 5.2
{7.8}
+19.3 -7.0 16 +19 +19 1017.4 992.5 +19.2 +19.1
СВ 5.6
{8.6}
+19.4 -7.2 16 +19 +19 1017.3 992.4 +19.5 +19.3
СВ 5.9
{8.7}
+19.6 -7.2 16 +19 +19 1017.3 992.4 +19.6 +19.4
Местоположение метеостанции Джангельды (Бухарская область, Узбекистан): широта 40.85 долгота 63.34 высота над уровнем моря 0 м.
В архиве по умолчанию представлена погода в Джангельды за последние 1-2 суток. Обновление информации о фактической погоде в базе происходит ежечасно! Архивные данные за месяц целиком и за предыдущие месяцы Вы можете получить, выбрав интересующий диапазон дат из раскрывающегося списка и нажав кнопку "Ввод!".
*Определитесь, кто Вы:
Внимание! Время в таблицах - местное (без учета летнего времени). Для получения всемирного времени необходимо вычесть поправку, которая равна 5 ч.
Смотрите также архив погоды на ближайших метеорологических станциях:
Партнеры нашего сайта:      
Пояснения к столбцам:
  • Ветер - указаны скорость ветра в м/с - средняя за 10 мин, порывы в срок и между сроками (в фигурных скобках) и направление, откуда дует ветер: С - северный,
  • СВ - северо-восточный, В - восточный, ЮВ - юго-восточный, Ю - южный, ЮЗ - юго-западный, З - западный, СЗ - северо-западный.
  • Видимость - горизонтальная дальность видимости в метрах или километрах. При видимости от 1 до 10 км при отсутствии осадков обычно наблюдается дымка, при ухудшении видимости до 1 км и менее - туман. В сухую погоду видимость может ухудшаться дымом, пылью или мглою.
  • Явления - указаны атмосферные явления, наблюдавшиеся в срок или в последний час перед сроком.
  • Солнечная радиация - мощность потока солнечного излучения на поверхность земли и предметов в Вт/м2.
  • T - Температура воздуха - температура, измеренная на высоте 2 м над землей.
  • Td - Температура точки росы - температура, при понижении до которой содержащийся в воздухе водяной пар достигнет насыщения.
  • f - Относительная влажность воздуха - влажноcть воздуха, измеренная на высоте 2 м над землей.
  • Te - Эффективная температура - температура, которую ощущает одетый по сезону человек в тени. Характеристика душности погоды. При расчете учитывается влияние влажности воздуха и скорости ветра на теплоощущения человека.
  • Tes - Эффективная температура на солнце - температура, которую ощущает человек, с поправкой на солнечный нагрев. Характеристика знойности погоды. Зависит от высоты солнца над горизонтом, облачности и скорости ветра. Ночью, в пасмурную погоду, а также при ветре 12 м/с и более поправка равна нулю.
  • P - Атмосферное давление - приведенное к уровню моря атмосферное давление.
  • Po - Атмосферное давление - измеренное на уровне метеостанции атмосферное давление.
  • Tmin - Минимальная температура - минимум температуры воздуха на высоте 2 м над землей.
  • Tmax - Максимальная температура - максимум температуры воздуха на высоте 2 м над землей.
  • R - Количество осадков - Количество выпавших осадков за период времени, мм. При наведении курсора мыши на число - период времени, за который выпало указанное количество осадков.